Location: Glendale
(37.4556°N, 88.6714°W)
Time: 05:19:21
(UTC+00:00)

BREEZE-M DEB (TANK) - Pass Details

Date: 08 December 2019
Orbit: 322 x 13104 km, 49.6° (Epoch: 25 January)

Event Time Altitude Azimuth Distance (km) Brightness Sun altitude
Rises 00:02:22 0° 307° (NW) 2,307 6.6 -16.6°
Reaches altitude 10° 00:04:21 10° 308° (NW) 1,264 5.2 -17.0°
Maximum altitude 00:06:39 84° 39° (NE) 337 1.6 -17.4°
Enters shadow 00:06:47 76° 100° (E) 347 1.6 -17.4°
